Regional Weather Roundup
Issued by NWS Burlington, VT

Current Version | Previous Version | Text Only | Print | Product List | Glossary On
Versions: 1 2 3 4 5 6 7 8 9 10 11 12 13 14 15 16 17 18 19 20 21 22 23 24 25 26 27 28 29 30 31 32 33 34 35 36 37 38 39 40 41 42 43 44 45 46 47 48 49 50
000
ASUS41 KBTV 220030
RWRBTV
VERMONT REGIONAL WEATHER ROUNDUP
NATIONAL WEATHER SERVICE BURLINGTON VT
800 PM EDT MON MAY 21 2018

NOTE: "FAIR" INDICATES FEW OR NO CLOUDS BELOW 12,000 FEET WITH NO
SIGNIFICANT WEATHER AND/OR OBSTRUCTIONS TO VISIBILITY.

* THESE REPORTS ARE NOT UNDER NWS QUALITY CONTROL AND/OR DO NOT
  REPORT WEATHER SUCH AS PRECIPITATION AND FOG.

VTZ001>019-220100-
_____VERMONT_____


CITY           SKY/WX    TMP DP  RH WIND       PRES   REMARKS
BURLINGTON     FAIR      73  43  33 N6        30.08R
6HR MIN TEMP:  73; 6HR MAX TEMP:  80;

MONTPELIER     FAIR      67  43  41 NW5       30.14R
6HR MIN TEMP:  67; 6HR MAX TEMP:  74;

MORRISVILLE    FAIR      68  43  40 CALM      30.10S
6HR MIN TEMP:  68; 6HR MAX TEMP:  76;

ST. JOHNSBURY*   N/A     70  40  33 MISG      30.08R
6HR MIN TEMP:  69; 6HR MAX TEMP:  76;

LYNDONVILLE*   FAIR      66  41  40 W5        30.13R
6HR MIN TEMP:  67; 6HR MAX TEMP:  73;

MIDDLEBURY*    FAIR      64  49  58 CALM      30.10R
6HR MIN TEMP:  67; 6HR MAX TEMP:  77;

RUTLAND*       FAIR      70  46  42 SW5       30.11R
6HR MIN TEMP:  70; 6HR MAX TEMP:  75;

SPRINGFIELD    FAIR      68  48  48 W3        30.10R
6HR MIN TEMP:  68; 6HR MAX TEMP:  77;

HIGHGATE*      FAIR      67  46  46 CALM      30.08R
6HR MIN TEMP:  70; 6HR MAX TEMP:  77;

NEWPORT*       FAIR      63  44  50 CALM      30.10R
6HR MIN TEMP:  64; 6HR MAX TEMP:  71;

BENNINGTON     FAIR      67  47  48 SW3       30.12R
6HR MIN TEMP:  67; 6HR MAX TEMP:  74;

ISLAND POND*     N/A     64 N/A N/A W3          N/A
GALLUP MILLS*    N/A     57 N/A N/A MISG        N/A
UNION VILLAGE*   N/A     61 N/A N/A MISG        N/A
MT. MANSFIELD*   N/A     57 N/A N/A W26         N/A

_____LAKE CHAMPLAIN_____


CITY           SKY/WX    TMP DP  RH WIND       PRES   REMARKS
BURTON ISLAND*   N/A     66  45  45 N1          N/A
COLCHESTER RF*   N/A     70  39  32 NW12        N/A
DIAMOND ISL*     N/A     75  39  27 NW6         N/A

$$

NYZ007-026>031-035-052-083-087-220100-
_____NORTHERN NEW YORK_____


CITY           SKY/WX    TMP DP  RH WIND       PRES   REMARKS
PLATTSBURGH    FAIR      73  41  31 NW3       30.07S
6HR MIN TEMP:  73; 6HR MAX TEMP:  79;

SARANAC LAKE   FAIR      66  41  40 W3        30.14R
6HR MIN TEMP:  66; 6HR MAX TEMP:  73;

MASSENA        FAIR      67  45  45 SW10      30.11R
6HR MIN TEMP:  67; 6HR MAX TEMP:  77;

OGDENSBURG*    FAIR      64  39  40 S6        30.12S
6HR MIN TEMP:  66; 6HR MAX TEMP:  75;

POTSDAM*       FAIR      63  39  42 SW8       30.13R
STARK FALLS*     N/A     64 N/A N/A W5          N/A
WATERTOWN      FAIR      59  46  62 CALM      30.14S
6HR MIN TEMP:  59; 6HR MAX TEMP:  67;

FT DRUM        FAIR      65  37  36 W3        30.14S
6HR MIN TEMP:  65; 6HR MAX TEMP:  70;

ALBANY         MOCLDY    72  42  34 W7        30.12R
6HR MIN TEMP:  72; 6HR MAX TEMP:  78;

GLENS FALLS    FAIR      70  48  45 S9        30.09R
6HR MIN TEMP:  70; 6HR MAX TEMP:  77;


$$
NHZ002-005-011-220100-
_____NEW HAMPSHIRE_____


CITY           SKY/WX    TMP DP  RH WIND       PRES   REMARKS
LEBANON        FAIR      68  47  46 W5        30.08R
6HR MIN TEMP:  68; 6HR MAX TEMP:  79;

KEENE          FAIR      70  47  43 S5        30.11R
6HR MIN TEMP:  70; 6HR MAX TEMP:  80;

PLYMOUTH       FAIR      64  48  55 CALM      30.08R
6HR MIN TEMP:  70; 6HR MAX TEMP:  77;

WHITEFIELD     FAIR      67  43  41 CALM      30.10R
6HR MIN TEMP:  67; 6HR MAX TEMP:  74;


$$

_____REGIONAL QUEBEC LOCATIONS_____


CITY           SKY/WX    TMP DP  RH WIND       PRES   REMARKS
MONTREAL       MOCLDY    72  41  33 NW6       30.06R
QUEBEC CITY    PTCLDY    64  30  27 NW3       30.04R
SHERBROOKE     PTCLDY    64  43  45 W6        30.05R

_____REGIONAL ONTARIO LOCATIONS_____


CITY           SKY/WX    TMP DP  RH WIND       PRES   REMARKS
OTTAWA         MOCLDY    72  43  35 NW9       30.09R

______KEY______
VSB  - VISIBILITY IN MILES
WCI  - WIND CHILL INDEX
HX   - HEAT INDEX
$$
NNNN




USA.gov is the U.S. government's official web portal to all federal, state and local government web resources and services.